Location: *
(17.3280°S, 114.7300°W)
Time: 15:30:41
(UTC+00:00)

Hubble Space Telescope - Pass Details

Date: 31 October 2020
Orbit: 536 x 540 km, 28.5° (Epoch: 29 November)

Event Time Altitude Azimuth Distance (km) Brightness Sun altitude
Rises 02:51:05 0° 331° (NNW) 2,660 4.4 -16.0°
Reaches altitude 10° 02:54:06 10° 354° (N) 1,775 3.3 -16.7°
Enters shadow 02:55:08 13° 7° (N) 1,577 2.9 -16.9°
